Time,TemperatureF,DewpointF,PressureIn,WindDirection,WindDirectionDegrees,WindSpeedMPH,WindSpeedGustMPH,Humidity,HourlyPrecipIn,Conditions,Clouds,dailyrainin,SoftwareType,DateUTC
2013-06-09 03:15:00,66.4,58.6,-100.00,NW,315,0.0,-999.0,76,-99.99,,,0.00,meteohub,2013-06-09 00:15:00,
2013-06-09 03:20:00,66.4,58.3,-100.00,West,270,0.0,2.0,75,0.00,,,0.00,meteohub,2013-06-09 00:20:00,
2013-06-09 03:25:00,66.4,58.3,-100.00,SE,135,0.0,2.0,75,0.00,,,0.00,meteohub,2013-06-09 00:25:00,
2013-06-09 03:30:00,66.4,58.3,-100.00,NE,45,0.0,2.0,75,0.00,,,0.00,meteohub,2013-06-09 00:30:00,
2013-06-09 03:35:00,66.2,58.1,-100.00,NE,45,1.0,2.0,75,0.00,,,0.00,meteohub,2013-06-09 00:35:00,
2013-06-09 03:41:00,66.2,58.5,-100.00,NE,45,2.0,3.0,76,0.00,,,0.00,meteohub,2013-06-09 00:41:00,
2013-06-09 03:46:00,66.2,58.5,-100.00,NE,45,3.0,3.0,76,0.00,,,0.00,meteohub,2013-06-09 00:46:00,
2013-06-09 03:51:00,66.2,58.5,-100.00,North,0,1.0,4.0,76,0.00,,,0.00,meteohub,2013-06-09 00:51:00,
2013-06-09 03:56:00,66.2,58.5,-100.00,East,90,0.0,4.0,76,0.00,,,0.00,meteohub,2013-06-09 00:56:00,
2013-06-09 04:02:00,66.2,58.5,-100.00,NE,45,0.0,4.0,76,0.00,,,0.00,meteohub,2013-06-09 01:02:00,
2013-06-09 04:07:00,66.2,58.5,-100.00,SW,225,0.0,4.0,76,0.00,,,0.00,meteohub,2013-06-09 01:07:00,
2013-06-09 04:12:00,66.2,58.5,-100.00,SW,225,0.0,3.0,76,0.00,,,0.00,meteohub,2013-06-09 01:12:00,
2013-06-09 04:17:00,66.2,58.5,-100.00,East,90,0.0,2.0,76,0.00,,,0.00,meteohub,2013-06-09 01:17:00,
2013-06-09 04:22:00,66.2,58.5,-100.00,North,0,0.0,2.0,76,0.00,,,0.00,meteohub,2013-06-09 01:22:00,
2013-06-09 04:28:00,66.2,58.5,-100.00,NE,45,0.0,3.0,76,0.00,,,0.00,meteohub,2013-06-09 01:28:00,
2013-06-09 04:33:00,66.0,58.3,-100.00,NE,45,0.0,3.0,76,0.00,,,0.00,meteohub,2013-06-09 01:33:00,
2013-06-09 04:38:00,66.0,58.3,-100.00,North,0,1.0,3.0,76,0.00,,,0.00,meteohub,2013-06-09 01:38:00,
2013-06-09 04:48:00,66.0,58.3,-100.00,North,0,0.0,2.0,76,0.00,,,0.00,meteohub,2013-06-09 01:48:00,
2013-06-09 04:53:00,66.0,58.6,-100.00,North,0,0.0,1.0,77,0.00,,,0.00,meteohub,2013-06-09 01:53:00,
2013-06-09 04:58:00,66.0,58.6,-100.00,North,0,0.0,2.0,77,0.00,,,0.00,meteohub,2013-06-09 01:58:00,
2013-06-09 05:03:00,66.0,58.6,-100.00,NE,45,0.0,2.0,77,0.00,,,0.00,meteohub,2013-06-09 02:03:00,
2013-06-09 05:08:00,66.0,58.6,-100.00,NE,45,0.0,2.0,77,0.00,,,0.00,meteohub,2013-06-09 02:08:00,
2013-06-09 05:14:00,66.0,58.6,-100.00,NE,45,0.0,2.0,77,0.00,,,0.00,meteohub,2013-06-09 02:14:00,
2013-06-09 05:30:00,65.8,58.5,-100.00,NE,45,0.0,2.0,77,0.00,,,0.00,meteohub,2013-06-09 02:30:00,
2013-06-09 05:43:00,65.8,58.5,-100.00,NE,45,0.0,3.0,77,0.00,,,0.00,meteohub,2013-06-09 02:43:00,
2013-06-09 06:00:00,65.8,58.8,-100.00,NE,45,2.0,2.0,78,0.00,,,0.00,meteohub,2013-06-09 03:00:00,
2013-06-09 06:05:00,65.7,58.6,-100.00,NE,45,0.0,4.0,78,0.00,,,0.00,meteohub,2013-06-09 03:05:00,
2013-06-09 06:10:00,65.7,58.6,-100.00,NE,45,1.0,4.0,78,0.00,,,0.00,meteohub,2013-06-09 03:10:00,
2013-06-09 06:16:00,65.8,58.8,-100.00,NE,45,0.0,3.0,78,0.00,,,0.00,meteohub,2013-06-09 03:16:00,
2013-06-09 06:21:00,65.8,58.8,-100.00,NE,45,0.0,3.0,78,0.00,,,0.00,meteohub,2013-06-09 03:21:00,
2013-06-09 07:11:00,66.6,59.5,-100.00,North,0,1.0,3.0,78,0.00,,,0.00,meteohub,2013-06-09 04:11:00,
2013-06-09 07:12:00,66.6,59.5,-100.00,North,0,0.0,3.0,78,0.00,,,0.00,meteohub,2013-06-09 04:12:00,
2013-06-09 07:13:00,66.6,59.5,-100.00,NE,45,0.0,3.0,78,0.00,,,0.00,meteohub,2013-06-09 04:13:00,
2013-06-09 07:14:00,66.6,59.5,-100.00,NE,45,0.0,3.0,78,0.00,,,0.00,meteohub,2013-06-09 04:14:00,
2013-06-09 07:19:00,66.7,59.4,-100.00,NE,45,0.0,3.0,77,0.00,,,0.00,meteohub,2013-06-09 04:19:00,
2013-06-09 07:24:00,66.7,59.4,-100.00,NE,45,0.0,3.0,77,0.00,,,0.00,meteohub,2013-06-09 04:24:00,
2013-06-09 07:29:00,66.9,59.5,-100.00,North,0,0.0,4.0,77,0.00,,,0.00,meteohub,2013-06-09 04:29:00,
2013-06-09 07:35:00,66.9,59.5,-100.00,NE,45,1.0,4.0,77,0.00,,,0.00,meteohub,2013-06-09 04:35:00,
2013-06-09 07:40:00,67.1,59.7,-100.00,North,0,2.0,3.0,77,0.00,,,0.00,meteohub,2013-06-09 04:40:00,
2013-06-09 07:47:00,67.3,59.5,-100.00,East,90,4.0,4.0,76,0.00,,,0.00,meteohub,2013-06-09 04:47:00,
2013-06-09 07:52:00,67.3,59.0,-100.00,North,0,2.0,5.0,75,0.00,,,0.00,meteohub,2013-06-09 04:52:00,
2013-06-09 07:57:00,67.3,58.6,-100.00,NE,45,0.0,6.0,74,0.00,,,0.00,meteohub,2013-06-09 04:57:00,
2013-06-09 08:02:00,67.6,59.0,-100.00,NNE,22,3.0,6.0,74,0.00,,,0.00,meteohub,2013-06-09 05:02:00,
2013-06-09 08:07:00,67.6,58.3,-100.00,NE,45,2.0,6.0,72,0.00,,,0.00,meteohub,2013-06-09 05:07:00,
2013-06-09 08:12:00,67.8,58.5,-100.00,NE,45,2.0,5.0,72,0.00,,,0.00,meteohub,2013-06-09 05:12:00,
2013-06-09 08:17:00,67.8,58.5,-100.00,NE,45,2.0,5.0,72,0.00,,,0.00,meteohub,2013-06-09 05:17:00,
2013-06-09 08:23:00,68.0,58.3,-100.00,NE,45,2.0,8.0,71,0.00,,,0.00,meteohub,2013-06-09 05:23:00,
2013-06-09 08:28:00,68.2,58.5,-100.00,NNE,22,1.0,8.0,71,0.00,,,0.00,meteohub,2013-06-09 05:28:00,
2013-06-09 08:33:00,68.5,58.3,-100.00,NE,45,2.0,8.0,70,0.00,,,0.00,meteohub,2013-06-09 05:33:00,
2013-06-09 08:38:00,68.5,57.9,-100.00,NE,45,4.0,5.0,69,0.00,,,0.00,meteohub,2013-06-09 05:38:00,
2013-06-09 08:43:00,68.9,58.3,-100.00,NE,45,2.0,5.0,69,0.00,,,0.00,meteohub,2013-06-09 05:43:00,
2013-06-09 08:48:00,69.4,58.8,-100.00,NE,45,2.0,5.0,69,0.00,,,0.00,meteohub,2013-06-09 05:48:00,
2013-06-09 08:53:00,69.6,57.7,-100.00,East,90,3.0,5.0,66,0.00,,,0.00,meteohub,2013-06-09 05:53:00,
2013-06-09 08:58:00,70.0,57.7,-100.00,NE,45,0.0,5.0,65,0.00,,,0.00,meteohub,2013-06-09 05:58:00,
2013-06-09 09:03:00,71.4,58.6,-100.00,NE,45,2.0,5.0,64,0.00,,,0.00,meteohub,2013-06-09 06:03:00,
2013-06-09 09:10:00,72.5,58.3,-100.00,North,0,0.0,5.0,61,0.00,,,0.00,meteohub,2013-06-09 06:10:00,
2013-06-09 09:15:00,73.2,56.7,-100.00,North,0,1.0,6.0,56,0.00,,,0.00,meteohub,2013-06-09 06:15:00,
2013-06-09 09:20:00,74.3,56.7,-100.00,SW,225,0.0,6.0,54,0.00,,,0.00,meteohub,2013-06-09 06:20:00,
2013-06-09 09:25:00,75.6,55.6,-100.00,SSW,202,0.0,6.0,50,0.00,,,0.00,meteohub,2013-06-09 06:25:00,
2013-06-09 09:31:00,75.9,54.3,-100.00,NE,45,2.0,5.0,47,0.00,,,0.00,meteohub,2013-06-09 06:31:00,
2013-06-09 09:36:00,76.5,52.3,-100.00,North,0,1.0,5.0,43,0.00,,,0.00,meteohub,2013-06-09 06:36:00,
2013-06-09 09:41:00,76.3,52.2,-100.00,North,0,2.0,5.0,43,0.00,,,0.00,meteohub,2013-06-09 06:41:00,
2013-06-09 09:46:00,77.2,52.9,-100.00,NE,45,1.0,5.0,43,0.00,,,0.00,meteohub,2013-06-09 06:46:00,
2013-06-09 09:51:00,78.1,53.1,-100.00,East,90,3.0,5.0,42,0.00,,,0.00,meteohub,2013-06-09 06:51:00,
2013-06-09 09:56:00,78.4,52.7,-100.00,SW,225,3.0,4.0,41,0.00,,,0.00,meteohub,2013-06-09 06:56:00,
2013-06-09 10:01:00,77.0,49.5,-100.00,NE,45,2.0,4.0,38,0.00,,,0.00,meteohub,2013-06-09 07:01:00,
2013-06-09 10:07:00,77.2,50.4,-100.00,East,90,2.0,4.0,39,0.00,,,0.00,meteohub,2013-06-09 07:07:00,
2013-06-09 10:12:00,75.7,49.6,-100.00,North,0,0.0,6.0,40,0.00,,,0.00,meteohub,2013-06-09 07:12:00,
2013-06-09 10:18:00,76.1,50.7,-100.00,North,0,4.0,6.0,41,0.00,,,0.00,meteohub,2013-06-09 07:18:00,
2013-06-09 10:23:00,76.8,49.3,-100.00,NE,45,2.0,6.0,38,0.00,,,0.00,meteohub,2013-06-09 07:23:00,
2013-06-09 10:28:00,77.5,51.3,-100.00,North,0,2.0,6.0,40,0.00,,,0.00,meteohub,2013-06-09 07:28:00,
2013-06-09 10:33:00,78.4,51.4,-100.00,North,0,2.0,6.0,39,0.00,,,0.00,meteohub,2013-06-09 07:33:00,
2013-06-09 10:38:00,78.1,49.6,-100.00,North,0,3.0,6.0,37,0.00,,,0.00,meteohub,2013-06-09 07:38:00,
2013-06-09 10:43:00,77.5,48.6,-100.00,NE,45,3.0,8.0,36,0.00,,,0.00,meteohub,2013-06-09 07:43:00,
2013-06-09 10:48:00,77.2,48.2,-100.00,NE,45,3.0,8.0,36,0.00,,,0.00,meteohub,2013-06-09 07:48:00,
2013-06-09 10:53:00,78.1,49.6,-100.00,North,0,0.0,8.0,37,0.00,,,0.00,meteohub,2013-06-09 07:53:00,
2013-06-09 10:58:00,78.3,50.5,-100.00,North,0,0.0,7.0,38,0.00,,,0.00,meteohub,2013-06-09 07:58:00,
2013-06-09 11:04:00,78.3,49.8,-100.00,North,0,1.0,7.0,37,0.00,,,0.00,meteohub,2013-06-09 08:04:00,
2013-06-09 11:09:00,77.7,47.1,-100.00,North,0,5.0,5.0,34,0.00,,,0.00,meteohub,2013-06-09 08:09:00,
2013-06-09 11:14:00,77.2,47.5,-100.00,NE,45,1.0,6.0,35,0.00,,,0.00,meteohub,2013-06-09 08:14:00,
2013-06-09 11:19:00,76.5,47.5,-100.00,NE,45,3.0,6.0,36,0.00,,,0.00,meteohub,2013-06-09 08:19:00,
2013-06-09 11:24:00,76.5,48.9,-100.00,NE,45,2.0,6.0,38,0.00,,,0.00,meteohub,2013-06-09 08:24:00,
2013-06-09 11:30:00,76.3,50.2,-100.00,West,270,1.0,7.0,40,0.00,,,0.00,meteohub,2013-06-09 08:30:00,
2013-06-09 11:35:00,75.7,51.6,-100.00,NE,45,2.0,7.0,43,0.00,,,0.00,meteohub,2013-06-09 08:35:00,
2013-06-09 11:40:00,75.0,52.2,-100.00,East,90,3.0,5.0,45,0.00,,,0.00,meteohub,2013-06-09 08:40:00,
2013-06-09 11:45:00,75.2,52.3,-100.00,North,0,2.0,6.0,45,0.00,,,0.00,meteohub,2013-06-09 08:45:00,
2013-06-09 11:50:00,75.0,52.2,-100.00,North,0,2.0,6.0,45,0.00,,,0.00,meteohub,2013-06-09 08:50:00,
2013-06-09 11:55:00,74.7,52.0,-100.00,SW,225,6.0,6.0,45,0.00,,,0.00,meteohub,2013-06-09 08:55:00,
2013-06-09 12:00:00,74.5,52.3,-100.00,NW,315,1.0,7.0,46,0.00,,,0.00,meteohub,2013-06-09 09:00:00,
2013-06-09 12:05:00,74.5,51.1,-100.00,NNE,22,2.0,7.0,44,0.00,,,0.00,meteohub,2013-06-09 09:05:00,
2013-06-09 12:10:00,74.7,50.0,-100.00,NE,45,0.0,6.0,42,0.00,,,0.00,meteohub,2013-06-09 09:10:00,
2013-06-09 12:15:00,74.7,50.0,-100.00,NE,45,3.0,6.0,42,0.00,,,0.00,meteohub,2013-06-09 09:15:00,
2013-06-09 12:21:00,74.5,52.3,-100.00,North,0,3.0,6.0,46,0.00,,,0.00,meteohub,2013-06-09 09:21:00,
2013-06-09 12:26:00,74.5,52.9,-100.00,SW,225,0.0,4.0,47,0.00,,,0.00,meteohub,2013-06-09 09:26:00,
2013-06-09 12:31:00,74.3,52.7,-100.00,East,90,3.0,8.0,47,0.00,,,0.00,meteohub,2013-06-09 09:31:00,
2013-06-09 12:36:00,74.1,53.2,-100.00,NE,45,3.0,8.0,48,0.00,,,0.00,meteohub,2013-06-09 09:36:00,
2013-06-09 12:41:00,74.1,53.2,-100.00,NE,45,3.0,8.0,48,0.00,,,0.00,meteohub,2013-06-09 09:41:00,
2013-06-09 12:46:00,74.1,53.2,-100.00,NE,45,3.0,8.0,48,0.00,,,0.00,meteohub,2013-06-09 09:46:00,
2013-06-09 12:51:00,74.1,53.2,-100.00,North,0,1.0,7.0,48,0.00,,,0.00,meteohub,2013-06-09 09:51:00,
2013-06-09 12:57:00,74.1,53.2,-100.00,North,0,3.0,7.0,48,0.00,,,0.00,meteohub,2013-06-09 09:57:00,
2013-06-09 13:02:00,73.9,52.5,-100.00,South,180,8.0,8.0,47,0.00,,,0.00,meteohub,2013-06-09 10:02:00,
2013-06-09 13:07:00,73.9,52.5,-100.00,North,0,3.0,8.0,47,0.00,,,0.00,meteohub,2013-06-09 10:07:00,
2013-06-09 13:12:00,73.8,52.3,-100.00,NNW,338,3.0,8.0,47,0.00,,,0.00,meteohub,2013-06-09 10:12:00,
2013-06-09 13:17:00,73.8,52.3,-100.00,NNE,22,3.0,8.0,47,0.00,,,0.00,meteohub,2013-06-09 10:17:00,
2013-06-09 13:22:00,73.8,52.9,-100.00,NE,45,3.0,8.0,48,0.00,,,0.00,meteohub,2013-06-09 10:22:00,
2013-06-09 13:27:00,73.8,52.9,-100.00,North,0,3.0,8.0,48,0.00,,,0.00,meteohub,2013-06-09 10:27:00,
2013-06-09 13:33:00,73.8,52.9,-100.00,NE,45,1.0,8.0,48,0.00,,,0.00,meteohub,2013-06-09 10:33:00,
2013-06-09 13:38:00,73.9,53.1,-100.00,North,0,3.0,8.0,48,0.00,,,0.00,meteohub,2013-06-09 10:38:00,
2013-06-09 13:43:00,73.6,52.2,-100.00,East,90,3.0,11.0,47,0.00,,,0.00,meteohub,2013-06-09 10:43:00,
2013-06-09 13:48:00,73.8,52.3,-100.00,North,0,2.0,11.0,47,0.00,,,0.00,meteohub,2013-06-09 10:48:00,
2013-06-09 13:53:00,73.8,52.3,-100.00,North,0,2.0,11.0,47,0.00,,,0.00,meteohub,2013-06-09 10:53:00,
2013-06-09 13:58:00,73.9,52.5,-100.00,North,0,2.0,9.0,47,0.00,,,0.00,meteohub,2013-06-09 10:58:00,
2013-06-09 14:03:00,74.1,52.0,-100.00,SW,225,0.0,9.0,46,0.00,,,0.00,meteohub,2013-06-09 11:03:00,
2013-06-09 14:08:00,73.9,51.8,-100.00,NE,45,2.0,9.0,46,0.00,,,0.00,meteohub,2013-06-09 11:08:00,
2013-06-09 14:13:00,73.8,51.6,-100.00,North,0,5.0,8.0,46,0.00,,,0.00,meteohub,2013-06-09 11:13:00,
2013-06-09 14:18:00,73.8,51.6,-100.00,SW,225,4.0,8.0,46,0.00,,,0.00,meteohub,2013-06-09 11:18:00,
2013-06-09 14:24:00,73.9,51.3,-100.00,North,0,2.0,9.0,45,0.00,,,0.00,meteohub,2013-06-09 11:24:00,
2013-06-09 14:29:00,74.1,51.4,-100.00,North,0,3.0,9.0,45,0.00,,,0.00,meteohub,2013-06-09 11:29:00,
2013-06-09 14:34:00,74.1,51.4,-100.00,SW,225,3.0,8.0,45,0.00,,,0.00,meteohub,2013-06-09 11:34:00,
2013-06-09 14:39:00,74.3,51.6,-100.00,West,270,3.0,8.0,45,0.00,,,0.00,meteohub,2013-06-09 11:39:00,
2013-06-09 14:44:00,74.7,52.0,-100.00,East,90,3.0,8.0,45,0.00,,,0.00,meteohub,2013-06-09 11:44:00,
2013-06-09 14:49:00,74.5,51.1,-100.00,NE,45,10.0,10.0,44,0.00,,,0.00,meteohub,2013-06-09 11:49:00,
2013-06-09 14:54:00,74.7,52.0,-100.00,NE,45,5.0,8.0,45,0.00,,,0.00,meteohub,2013-06-09 11:54:00,
2013-06-09 14:59:00,75.2,51.8,-100.00,West,270,2.0,10.0,44,0.00,,,0.00,meteohub,2013-06-09 11:59:00,
2013-06-09 15:04:00,75.6,51.4,-100.00,NNW,338,2.0,10.0,43,0.00,,,0.00,meteohub,2013-06-09 12:04:00,
2013-06-09 15:09:00,76.5,52.3,-100.00,NE,45,2.0,10.0,43,0.00,,,0.00,meteohub,2013-06-09 12:09:00,
2013-06-09 15:14:00,75.6,50.9,-100.00,NE,45,1.0,8.0,42,0.00,,,0.00,meteohub,2013-06-09 12:14:00,
2013-06-09 15:20:00,76.3,51.4,-100.00,NE,45,1.0,10.0,42,0.00,,,0.00,meteohub,2013-06-09 12:20:00,
2013-06-09 15:25:00,76.6,51.8,-100.00,NE,45,8.0,10.0,42,0.00,,,0.00,meteohub,2013-06-09 12:25:00,
2013-06-09 15:30:00,77.5,52.0,-100.00,North,0,1.0,10.0,41,0.00,,,0.00,meteohub,2013-06-09 12:30:00,
2013-06-09 15:35:00,78.1,52.5,-100.00,East,90,2.0,10.0,41,0.00,,,0.00,meteohub,2013-06-09 12:35:00,
2013-06-09 15:40:00,78.1,51.8,-100.00,East,90,6.0,10.0,40,0.00,,,0.00,meteohub,2013-06-09 12:40:00,
2013-06-09 15:45:00,78.4,51.4,-100.00,North,0,6.0,10.0,39,0.00,,,0.00,meteohub,2013-06-09 12:45:00,
2013-06-09 15:50:00,78.4,51.4,-100.00,NE,45,7.0,10.0,39,0.00,,,0.00,meteohub,2013-06-09 12:50:00,
2013-06-09 15:56:00,78.4,50.0,-100.00,SW,225,1.0,10.0,37,0.00,,,0.00,meteohub,2013-06-09 12:56:00,
2013-06-09 16:01:00,79.9,50.5,-100.00,NE,45,3.0,9.0,36,0.00,,,0.00,meteohub,2013-06-09 13:01:00,
2013-06-09 16:06:00,80.2,49.3,-100.00,East,90,2.0,9.0,34,0.00,,,0.00,meteohub,2013-06-09 13:06:00,
2013-06-09 16:12:00,81.3,49.5,-100.00,NE,45,1.0,6.0,33,0.00,,,0.00,meteohub,2013-06-09 13:12:00,
2013-06-09 16:17:00,81.7,48.9,-100.00,East,90,2.0,5.0,32,0.00,,,0.00,meteohub,2013-06-09 13:17:00,
2013-06-09 16:22:00,81.0,47.5,-100.00,North,0,2.0,5.0,31,0.00,,,0.00,meteohub,2013-06-09 13:22:00,
2013-06-09 16:27:00,81.0,46.6,-100.00,NW,315,3.0,9.0,30,0.00,,,0.00,meteohub,2013-06-09 13:27:00,
2013-06-09 16:33:00,81.1,47.7,-100.00,North,0,1.0,9.0,31,0.00,,,0.00,meteohub,2013-06-09 13:33:00,
2013-06-09 16:38:00,81.9,48.2,-100.00,ENE,68,6.0,9.0,31,0.00,,,0.00,meteohub,2013-06-09 13:38:00,
2013-06-09 16:43:00,82.0,48.4,-100.00,North,0,1.0,9.0,31,0.00,,,0.00,meteohub,2013-06-09 13:43:00,
2013-06-09 16:48:00,80.8,47.3,-100.00,North,0,4.0,8.0,31,0.00,,,0.00,meteohub,2013-06-09 13:48:00,
2013-06-09 16:53:00,81.5,48.7,-100.00,NE,45,1.0,10.0,32,0.00,,,0.00,meteohub,2013-06-09 13:53:00,
2013-06-09 16:58:00,80.6,47.1,-100.00,North,0,3.0,10.0,31,0.00,,,0.00,meteohub,2013-06-09 13:58:00,
2013-06-09 17:04:00,81.1,47.7,-100.00,NE,45,3.0,11.0,31,0.00,,,0.00,meteohub,2013-06-09 14:04:00,
2013-06-09 17:09:00,81.1,47.7,-100.00,North,0,4.0,11.0,31,0.00,,,0.00,meteohub,2013-06-09 14:09:00,
2013-06-09 17:14:00,81.0,47.5,-100.00,NW,315,1.0,11.0,31,0.00,,,0.00,meteohub,2013-06-09 14:14:00,
2013-06-09 17:19:00,80.6,47.1,-100.00,NE,45,2.0,5.0,31,0.00,,,0.00,meteohub,2013-06-09 14:19:00,
2013-06-09 17:24:00,79.9,47.3,-100.00,North,0,2.0,6.0,32,0.00,,,0.00,meteohub,2013-06-09 14:24:00,
2013-06-09 17:29:00,79.0,45.7,-100.00,North,0,3.0,7.0,31,0.00,,,0.00,meteohub,2013-06-09 14:29:00,
2013-06-09 17:34:00,77.5,46.9,-100.00,NE,45,2.0,7.0,34,0.00,,,0.00,meteohub,2013-06-09 14:34:00,
2013-06-09 17:39:00,77.4,47.5,-100.00,NE,45,2.0,6.0,35,0.00,,,0.00,meteohub,2013-06-09 14:39:00,
2013-06-09 17:45:00,77.2,46.6,-100.00,North,0,0.0,6.0,34,0.00,,,0.00,meteohub,2013-06-09 14:45:00,
2013-06-09 17:50:00,76.5,45.1,-100.00,NE,45,4.0,8.0,33,0.00,,,0.00,meteohub,2013-06-09 14:50:00,
2013-06-09 17:55:00,76.5,46.0,-100.00,North,0,4.0,8.0,34,0.00,,,0.00,meteohub,2013-06-09 14:55:00,
2013-06-09 18:00:00,76.1,46.4,-100.00,East,90,3.0,8.0,35,0.00,,,0.00,meteohub,2013-06-09 15:00:00,
2013-06-09 18:05:00,75.6,48.2,-100.00,WNW,292,4.0,7.0,38,0.00,,,0.00,meteohub,2013-06-09 15:05:00,
2013-06-09 18:10:00,75.4,47.3,-100.00,North,0,4.0,7.0,37,0.00,,,0.00,meteohub,2013-06-09 15:10:00,
2013-06-09 18:15:00,75.4,47.3,-100.00,NE,45,1.0,7.0,37,0.00,,,0.00,meteohub,2013-06-09 15:15:00,
2013-06-09 18:20:00,75.2,47.8,-100.00,NE,45,2.0,7.0,38,0.00,,,0.00,meteohub,2013-06-09 15:20:00,
2013-06-09 18:26:00,75.0,47.7,-100.00,NE,45,2.0,7.0,38,0.00,,,0.00,meteohub,2013-06-09 15:26:00,
2013-06-09 18:31:00,74.7,48.0,-100.00,NE,45,1.0,7.0,39,0.00,,,0.00,meteohub,2013-06-09 15:31:00,
2013-06-09 18:36:00,74.7,48.7,-100.00,SW,225,2.0,7.0,40,0.00,,,0.00,meteohub,2013-06-09 15:36:00,
2013-06-09 18:41:00,74.5,49.3,-100.00,NW,315,1.0,7.0,41,0.00,,,0.00,meteohub,2013-06-09 15:41:00,
2013-06-09 18:46:00,74.5,49.3,-100.00,North,0,2.0,6.0,41,0.00,,,0.00,meteohub,2013-06-09 15:46:00,
2013-06-09 18:51:00,73.9,49.5,-100.00,NE,45,3.0,8.0,42,0.00,,,0.00,meteohub,2013-06-09 15:51:00,
2013-06-09 18:57:00,74.1,49.6,-100.00,North,0,4.0,9.0,42,0.00,,,0.00,meteohub,2013-06-09 15:57:00,
2013-06-09 19:02:00,73.8,49.8,-100.00,NNE,22,3.0,9.0,43,0.00,,,0.00,meteohub,2013-06-09 16:02:00,
2013-06-09 19:07:00,73.6,49.6,-100.00,North,0,1.0,9.0,43,0.00,,,0.00,meteohub,2013-06-09 16:07:00,
2013-06-09 19:13:00,73.6,50.4,-100.00,North,0,1.0,8.0,44,0.00,,,0.00,meteohub,2013-06-09 16:13:00,
2013-06-09 19:18:00,73.4,50.2,-100.00,NE,45,4.0,8.0,44,0.00,,,0.00,meteohub,2013-06-09 16:18:00,
2013-06-09 19:23:00,73.2,50.5,-100.00,NE,45,3.0,8.0,45,0.00,,,0.00,meteohub,2013-06-09 16:23:00,
2013-06-09 19:28:00,73.2,51.3,-100.00,North,0,0.0,7.0,46,0.00,,,0.00,meteohub,2013-06-09 16:28:00,
2013-06-09 19:33:00,73.0,50.4,-100.00,NE,45,4.0,7.0,45,0.00,,,0.00,meteohub,2013-06-09 16:33:00,
2013-06-09 19:38:00,72.7,50.7,-100.00,NE,45,1.0,7.0,46,0.00,,,0.00,meteohub,2013-06-09 16:38:00,
2013-06-09 19:43:00,72.7,50.7,-100.00,NE,45,1.0,6.0,46,0.00,,,0.00,meteohub,2013-06-09 16:43:00,
2013-06-09 19:48:00,72.5,51.6,-100.00,NW,315,3.0,6.0,48,0.00,,,0.00,meteohub,2013-06-09 16:48:00,
2013-06-09 19:53:00,72.3,52.2,-100.00,NNE,22,1.0,6.0,49,0.00,,,0.00,meteohub,2013-06-09 16:53:00,
2013-06-09 19:59:00,72.1,52.0,-100.00,North,0,0.0,4.0,49,0.00,,,0.00,meteohub,2013-06-09 16:59:00,
2013-06-09 20:04:00,72.1,52.5,-100.00,NE,45,1.0,4.0,50,0.00,,,0.00,meteohub,2013-06-09 17:04:00,
2013-06-09 20:09:00,72.0,52.9,-100.00,NE,45,2.0,6.0,51,0.00,,,0.00,meteohub,2013-06-09 17:09:00,
2013-06-09 20:14:00,71.6,52.5,-100.00,NNE,22,0.0,6.0,51,0.00,,,0.00,meteohub,2013-06-09 17:14:00,
2013-06-09 20:19:00,71.6,53.1,-100.00,NE,45,2.0,6.0,52,0.00,,,0.00,meteohub,2013-06-09 17:19:00,